• In Deutschland
  • Länderverzeichnis
  • Für 7 Tage
  • Wassertemperatur
  • Satellitenkarten
  • Wetterkarte
  • Widgets
  • user-avatar
    Anmelden

    Stündliche Wetter Korçe

    Heute, 30 März, Donnerstag

    Zeit Temperatur Niederschläge Wind Luftdruck Luftfeuchtigkeit
    00:00 +4°C° 0 mm 2 m/S 667 mmHg 67%
    01:00 +3°C° 0 mm 2 m/S 667 mmHg 67%
    02:00 +3°C° 0 mm 2 m/S 667 mmHg 67%
    03:00 +3°C° 0 mm 2 m/S 667 mmHg 67%
    04:00 +3°C° 0 mm 2 m/S 667 mmHg 67%
    05:00 +4°C° 0 mm 2 m/S 667 mmHg 65%
    06:00 +5°C° 0 mm 2 m/S 668 mmHg 62%
    07:00 +7°C° 0 mm 2 m/S 668 mmHg 60%
    08:00 +9°C° 0 mm 2 m/S 669 mmHg 54%
    09:00 +12°C° 0 mm 2 m/S 669 mmHg 47%
    10:00 +14°C° 0 mm 2 m/S 670 mmHg 41%
    11:00 +15°C° 0 mm 2 m/S 670 mmHg 39%
    12:00 +16°C° 0 mm 3 m/S 670 mmHg 37%
    13:00 +16°C° 0 mm 3 m/S 670 mmHg 35%
    14:00 +16°C° 0 mm 3 m/S 670 mmHg 37%
    15:00 +16°C° 0 mm 3 m/S 670 mmHg 40%
    16:00 +14°C° 0 mm 3 m/S 669 mmHg 42%
    17:00 +12°C° 0 mm 3 m/S 669 mmHg 51%
    18:00 +9°C° 0 mm 2 m/S 669 mmHg 60%
    19:00 +7°C° 0 mm 2 m/S 668 mmHg 69%
    20:00 +7°C° 0 mm 2 m/S 668 mmHg 70%
    21:00 +6°C° 0 mm 2 m/S 669 mmHg 71%
    22:00 +6°C° 0 mm 2 m/S 669 mmHg 72%
    23:00 +6°C° 0 mm 2 m/S 669 mmHg 74%

    Morgen, 31 März, Freitag

    Zeit Temperatur Niederschläge Wind Luftdruck Luftfeuchtigkeit
    00:00 +6°C° 0 mm 2 m/S 669 mmHg 76%
    01:00 +5°C° 0 mm 2 m/S 669 mmHg 79%
    02:00 +5°C° 0 mm 2 m/S 669 mmHg 80%
    03:00 +5°C° 0 mm 2 m/S 669 mmHg 82%
    04:00 +4°C° 0 mm 2 m/S 669 mmHg 84%
    05:00 +5°C° 0 mm 2 m/S 669 mmHg 81%
    06:00 +6°C° 0 mm 2 m/S 670 mmHg 78%
    07:00 +7°C° 0 mm 2 m/S 670 mmHg 74%
    08:00 +9°C° 0 mm 2 m/S 671 mmHg 66%
    09:00 +12°C° 0 mm 2 m/S 671 mmHg 58%
    10:00 +14°C° 0 mm 1 m/S 672 mmHg 49%
    11:00 +15°C° 0,1 mm 2 m/S 672 mmHg 48%
    12:00 +15°C° 0,1 mm 2 m/S 672 mmHg 46%
    13:00 +16°C° 0,1 mm 2 m/S 672 mmHg 44%
    14:00 +15°C° 0,2 mm 2 m/S 671 mmHg 48%
    15:00 +14°C° 0,2 mm 2 m/S 671 mmHg 51%
    16:00 +14°C° 0,2 mm 2 m/S 670 mmHg 54%
    17:00 +12°C° 0,1 mm 1 m/S 670 mmHg 62%
    18:00 +10°C° 0,1 mm 1 m/S 670 mmHg 71%
    19:00 +8°C° 0,1 mm 1 m/S 669 mmHg 79%
    20:00 +8°C° 0 mm 1 m/S 669 mmHg 81%
    21:00 +7°C° 0 mm 1 m/S 669 mmHg 82%
    22:00 +6°C° 0 mm 1 m/S 669 mmHg 84%
    23:00 +6°C° 0 mm 1 m/S 669 mmHg 85%

    übermorgen, 1 April, Samstag

    Zeit Temperatur Niederschläge Wind Luftdruck Luftfeuchtigkeit
    00:00 +6°C° 0 mm 1 m/S 669 mmHg 86%
    01:00 +5°C° 0 mm 1 m/S 669 mmHg 86%
    02:00 +5°C° 0 mm 1 m/S 669 mmHg 86%
    03:00 +5°C° 0 mm 1 m/S 668 mmHg 86%
    04:00 +4°C° 0 mm 1 m/S 668 mmHg 87%
    05:00 +5°C° 0 mm 1 m/S 669 mmHg 83%
    06:00 +6°C° 0 mm 1 m/S 669 mmHg 78%
    07:00 +8°C° 0 mm 1 m/S 669 mmHg 74%
    08:00 +10°C° 0 mm 1 m/S 670 mmHg 65%
    09:00 +12°C° 0 mm 1 m/S 671 mmHg 56%
    10:00 +14°C° 0 mm 1 m/S 671 mmHg 47%
    11:00 +15°C° 0 mm 1 m/S 671 mmHg 44%
    12:00 +16°C° 0 mm 1 m/S 671 mmHg 41%
    13:00 +16°C° 0 mm 2 m/S 671 mmHg 38%
    14:00 +16°C° 0 mm 2 m/S 670 mmHg 41%
    15:00 +15°C° 0 mm 2 m/S 670 mmHg 44%
    16:00 +14°C° 0 mm 2 m/S 670 mmHg 48%
    17:00 +12°C° 0 mm 2 m/S 669 mmHg 59%
    18:00 +9°C° 0 mm 1 m/S 669 mmHg 71%
    19:00 +7°C° 0 mm 1 m/S 668 mmHg 82%
    20:00 +7°C° 0 mm 1 m/S 668 mmHg 84%
    21:00 +6°C° 0 mm 1 m/S 668 mmHg 86%
    22:00 +6°C° 0 mm 1 m/S 669 mmHg 88%
    23:00 +5°C° 0 mm 1 m/S 668 mmHg 88%

    2 April, Sonntag

    Zeit Temperatur Niederschläge Wind Luftdruck Luftfeuchtigkeit
    00:00 +5°C° 0 mm 1 m/S 668 mmHg 88%
    01:00 +5°C° 0 mm 1 m/S 668 mmHg 88%
    02:00 +4°C° 0 mm 1 m/S 668 mmHg 87%
    03:00 +4°C° 0 mm 1 m/S 668 mmHg 86%
    04:00 +4°C° 0 mm 1 m/S 668 mmHg 86%
    05:00 +5°C° 0 mm 1 m/S 668 mmHg 78%
    06:00 +6°C° 0 mm 1 m/S 669 mmHg 70%
    07:00 +8°C° 0 mm 1 m/S 669 mmHg 62%
    08:00 +10°C° 0 mm 1 m/S 670 mmHg 53%
    09:00 +12°C° 0 mm 1 m/S 671 mmHg 43%
    10:00 +14°C° 0 mm 1 m/S 671 mmHg 34%
    11:00 +15°C° 0 mm 2 m/S 671 mmHg 32%
    12:00 +15°C° 0 mm 2 m/S 671 mmHg 31%
    13:00 +16°C° 0 mm 2 m/S 671 mmHg 29%
    14:00 +15°C° 0,1 mm 2 m/S 671 mmHg 33%
    15:00 +14°C° 0,1 mm 2 m/S 670 mmHg 36%
    16:00 +14°C° 0,1 mm 2 m/S 670 mmHg 39%
    17:00 +10°C° 0,1 mm 2 m/S 670 mmHg 51%
    18:00 +9°C° 0,1 mm 1 m/S 669 mmHg 62%
    19:00 +6°C° 0,1 mm 1 m/S 668 mmHg 73%
    20:00 +5°C° 0 mm 1 m/S 669 mmHg 75%
    21:00 +5°C° 0 mm 1 m/S 669 mmHg 76%
    22:00 +4°C° 0 mm 1 m/S 669 mmHg 77%
    23:00 +4°C° 0 mm 1 m/S 668 mmHg 76%

    3 April, Montag

    Zeit Temperatur Niederschläge Wind Luftdruck Luftfeuchtigkeit
    00:00 +4°C° 0 mm 1 m/S 668 mmHg 75%
    01:00 +3°C° 0 mm 1 m/S 668 mmHg 73%
    02:00 +3°C° 0 mm 1 m/S 668 mmHg 71%
    03:00 +3°C° 0 mm 1 m/S 668 mmHg 69%
    04:00 +3°C° 0 mm 1 m/S 667 mmHg 67%
    05:00 +4°C° 0 mm 1 m/S 668 mmHg 63%
    06:00 +6°C° 0 mm 1 m/S 668 mmHg 59%
    07:00 +7°C° 0 mm 1 m/S 669 mmHg 54%
    08:00 +9°C° 0 mm 1 m/S 669 mmHg 48%
    09:00 +11°C° 0 mm 1 m/S 670 mmHg 42%
    10:00 +13°C° 0 mm 1 m/S 670 mmHg 35%
    11:00 +14°C° 0 mm 2 m/S 670 mmHg 35%
    12:00 +14°C° 0 mm 2 m/S 670 mmHg 35%
    13:00 +14°C° 0 mm 2 m/S 670 mmHg 35%
    14:00 +14°C° 0 mm 2 m/S 669 mmHg 40%
    15:00 +13°C° 0 mm 2 m/S 668 mmHg 44%
    16:00 +12°C° 0 mm 2 m/S 668 mmHg 49%
    17:00 +10°C° 0,2 mm 2 m/S 667 mmHg 57%
    18:00 +8°C° 0,2 mm 2 m/S 667 mmHg 66%
    19:00 +8°C° 0,2 mm 1 m/S 667 mmHg 75%
    20:00 +7°C° 0,3 mm 1 m/S 667 mmHg 77%
    21:00 +7°C° 0,3 mm 1 m/S 667 mmHg 80%
    22:00 +6°C° 0,3 mm 1 m/S 667 mmHg 83%
    23:00 +6°C° 0,5 mm 1 m/S 666 mmHg 85%

    4 April, Dienstag

    Zeit Temperatur Niederschläge Wind Luftdruck Luftfeuchtigkeit
    00:00 +6°C° 0,5 mm 1 m/S 666 mmHg 86%
    01:00 +6°C° 0,5 mm 1 m/S 666 mmHg 88%
    02:00 +6°C° 0,4 mm 1 m/S 666 mmHg 89%
    03:00 +5°C° 0,4 mm 1 m/S 666 mmHg 90%
    04:00 +5°C° 0,4 mm 1 m/S 665 mmHg 91%
    05:00 +6°C° 0,1 mm 1 m/S 666 mmHg 88%
    06:00 +6°C° 0,1 mm 1 m/S 666 mmHg 86%
    07:00 +7°C° 0,1 mm 1 m/S 666 mmHg 83%
    08:00 +8°C° 0,1 mm 1 m/S 667 mmHg 75%
    09:00 +10°C° 0,1 mm 1 m/S 667 mmHg 67%
    10:00 +11°C° 0,1 mm 1 m/S 668 mmHg 60%
    11:00 +11°C° 0,8 mm 1 m/S 667 mmHg 61%
    12:00 +11°C° 0,8 mm 1 m/S 667 mmHg 62%
    13:00 +11°C° 0,8 mm 1 m/S 667 mmHg 63%
    14:00 +11°C° 1,1 mm 1 m/S 666 mmHg 67%
    15:00 +10°C° 1,1 mm 1 m/S 666 mmHg 71%
    16:00 +10°C° 1,1 mm 1 m/S 666 mmHg 75%
    17:00 +9°C° 0,8 mm 1 m/S 666 mmHg 80%
    18:00 +6°C° 0,8 mm 0 m/S 666 mmHg 85%
    19:00 +5°C° 0,8 mm 0 m/S 665 mmHg 91%
    20:00 +5°C° 0,6 mm 0 m/S 665 mmHg 92%
    21:00 +5°C° 0,6 mm 0 m/S 665 mmHg 92%
    22:00 +4°C° 0,6 mm 0 m/S 665 mmHg 93%
    23:00 +4°C° 0,5 mm 0 m/S 665 mmHg 93%
    Mehr zeigen